Miscellaneous Local Product
Issued by NWS Hastings, NE

Home | Current Version | Previous Version | Text Only | Print | Product List | Glossary Off
Versions: 1 2 3 4 5 6 7 8 9 10 11 12 13 14 15 16 17 18 19 20 21 22 23 24 25 26 27 28 29 30 31 32 33 34 35 36 37 38 39 40 41 42 43 44 45 46 47 48 49 50

000
AXUS43 KGID 241302
MISGRI

GID CWA HOURLY WEATHER ROUNDUP
NATIONAL WEATHER SERVICE HASTINGS NE
800 AM CDT FRI APR 24 2015

NOTE: "FAIR" INDICATES FEW OR NO CLOUDS BELOW 12,000 FEET WITH NO
SIGNIFICANT WEATHER AND/OR OBSTRUCTIONS TO VISIBILITY.

...SOUTH CENTRAL NEBRASKA...

CITY           SKY/WX    TMP DP  RH WIND       PRES   REMARKS
GRAND ISLAND   CLOUDY    53  49  86 S12       29.73R
HASTINGS       CLOUDY    53  50  89 S7        29.72R
KEARNEY        PTSUNNY   48  46  93 S7        29.73R
ORD            MOSUNNY   49  44  83 S7        29.69F
YORK           CLOUDY    54  48  82 S15       29.74S
AURORA         CLOUDY    52  49  90 S9G18     29.73S
LEXINGTON      MOSUNNY   48  47  94 SE5       29.70F FOG
HOLDREGE       PTSUNNY   46  45  94 CALM      29.72R FOG
HEBRON         CLOUDY    55  49  81 S9G17     29.75R

...NEBRASKA PANHANDLE...

CITY           SKY/WX    TMP DP  RH WIND       PRES   REMARKS
CHADRON        MOSUNNY   42  38  85 MISG      29.64S
ALLIANCE       PTSUNNY   41  38  89 SW6       29.66S
SCOTTSBLUFF    PTCLDY    43  32  65 NW5       29.68S
SIDNEY         FOG       47  47 100 SW7       29.70R VSB<1/4

...WESTERN AND NORTH CENTRAL NEBRASKA...

CITY           SKY/WX    TMP DP  RH WIND       PRES   REMARKS
VALENTINE      PTSUNNY   49  45  86 SW9       29.61S
AINSWORTH      PTSUNNY   51  48  89 S12       29.64R
ONEILL         CLOUDY    51  46  83 S10       29.67R
BROKEN BOW     MOSUNNY   50  47  89 S9        29.68F
IMPERIAL       MOSUNNY   50  48  93 S7        29.68F FOG
NORTH PLATTE   NOT AVBL
MCCOOK         CLOUDY    54  51  90 SW5       29.70S

...EASTERN NEBRASKA...

CITY           SKY/WX    TMP DP  RH WIND       PRES   REMARKS
NORFOLK        CLOUDY    53  43  68 S8        29.74R
SO SIOUX CITY  CLOUDY    55  38  52 SE10      29.75S
TEKAMAH        CLOUDY    56  40  55 SE12      29.76S
COLUMBUS       CLOUDY    54  43  66 S8        29.76S
ALBION         CLOUDY    51  43  74 S8        29.72R
OMAHA EPPLEY   LGT RAIN  56  41  57 S16       29.77S
OFFUTT AFB     CLOUDY    56  40  55 SE10      29.77S
MILLARD        CLOUDY    55  41  58 SE10      29.76F
LINCOLN        CLOUDY    57  46  66 S15       29.76S
NEBRASKA CITY  CLOUDY    56  37  50 SE9       29.79F
BEATRICE       CLOUDY    55  46  71 SE13      29.76S
FALLS CITY     CLOUDY    57  43  59 S10       29.79S

...NORTHERN KANSAS...

CITY           SKY/WX    TMP DP  RH WIND       PRES   REMARKS
GOODLAND       CLOUDY    53  52  96 S3        29.72S
HILL CITY      CLOUDY    56  54  93 S7        29.72R FOG
NORTON         CLOUDY    55  54  94 S6        29.70S FOG
BELOIT         CLOUDY    54  54 100 SE7       29.72F
HAYS           CLOUDY    55  48  76 SE13      29.70S
RUSSELL        CLOUDY    56  55  97 SE23G29   29.69S
CONCORDIA      CLOUDY    55  50  83 SE7       29.74R
SALINA         PTSUNNY   57  53  86 SE16      29.74R
TOPEKA         CLOUDY    56  45  66 SE16G25   29.80F



USA.gov is the U.S. government's official web portal to all federal, state and local government web resources and services.